| time (UTC) | temp F | wind direction | speed MPH | gust MPH | rain 1hr in | rain 24hr in | rain mn in | humidity % | barometer mb |
| 20260505181803 | 59 | 298 | 5.0 | 9.0 | 0.00 | 0.00 | 0.00 | 33 | |
| 20260505180903 | 59 | 278 | 6.0 | 12.0 | 0.00 | 0.00 | 0.00 | 33 | |
| 20260505180003 | 59 | 267 | 5.0 | 12.0 | 0.00 | 0.00 | 0.00 | 33 | |
| 20260505175403 | 59 | 271 | 5.0 | 12.0 | 0.00 | 0.00 | 0.00 | 35 | |
| 20260505174503 | 59 | 272 | 5.0 | 10.0 | 0.00 | 0.00 | 0.00 | 35 | |
| 20260505173814 | 59 | 264 | 5.0 | 14.0 | 0.00 | 0.00 | 0.00 | 36 | |
| 20260505172703 | 58 | 277 | 7.0 | 13.0 | 0.00 | 0.00 | 0.00 | 35 | |
| 20260505171803 | 58 | 269 | 8.0 | 13.0 | 0.00 | 0.00 | 0.00 | 35 | |
| 20260505170903 | 57 | 264 | 6.0 | 14.0 | 0.00 | 0.00 | 0.00 | 38 | |
| 20260505170003 | 57 | 228 | 7.0 | 13.0 | 0.00 | 0.00 | 0.00 | 35 | |
| 20260505165403 | 56 | 229 | 6.0 | 11.0 | 0.00 | 0.00 | 0.00 | 37 | |
| 20260505164503 | 55 | 222 | 7.0 | 15.0 | 0.00 | 0.00 | 0.00 | 39 | |
| 20260505163813 | 55 | 220 | 6.0 | 14.0 | 0.00 | 0.00 | 0.00 | 39 | |
| 20260505162703 | 55 | 214 | 6.0 | 11.0 | 0.00 | 0.00 | 0.00 | 39 | |
| 20260505161803 | 55 | 215 | 6.0 | 16.0 | 0.00 | 0.00 | 0.00 | 40 | |
| 20260505160903 | 54 | 226 | 7.0 | 15.0 | 0.00 | 0.00 | 0.00 | 41 | |
| 20260505152703 | 52 | 206 | 6.0 | 12.0 | 0.00 | 0.00 | 0.00 | 42 | |
| 20260505151803 | 51 | 217 | 5.0 | 11.0 | 0.00 | 0.00 | 0.00 | 43 | |
| 20260505150903 | 50 | 195 | 4.0 | 8.0 | 0.00 | 0.00 | 0.00 | 44 | |
| 20260505150214 | 50 | 214 | 4.0 | 9.0 | 0.00 | 0.00 | 0.00 | 44 | |
| 20260505140214 | 42 | 236 | 1.0 | 3.0 | 0.00 | 0.00 | 0.00 | 64 | |
| 20260505124503 | 38 | 185 | 1.0 | 3.0 | 0.00 | 0.00 | 0.00 | 61 | |
| 20260505123603 | 37 | 0 | 0.0 | 0.0 | 0.00 | 0.00 | 0.00 | 60 | |
| 20260505122703 | 37 | 0 | 0.0 | 0.0 | 0.00 | 0.00 | 0.00 | 59 | |
| 20260505121803 | 37 | 185 | 0.0 | 2.0 | 0.00 | 0.00 | 0.00 | 58 | |
| 20260505120903 | 37 | 185 | 0.0 | 3.0 | 0.00 | 0.00 | 0.00 | 57 | |
| 20260505120004 | 38 | 185 | 0.0 | 2.0 | 0.00 | 0.00 | 0.00 | 56 | |
| 20260505115613 | 37 | 185 | 0.0 | 2.0 | 0.00 | 0.00 | 0.00 | 56 | |
| 20260505114503 | 38 | 185 | 0.0 | 2.0 | 0.00 | 0.00 | 0.00 | 57 | |
| 20260505113603 | 38 | 185 | 1.0 | 3.0 | 0.00 | 0.00 | 0.00 | 56 | |
| 20260505112703 | 37 | 185 | 0.0 | 3.0 | 0.00 | 0.00 | 0.00 | 58 | |
| 20260505111803 | 37 | 186 | 1.0 | 4.0 | 0.00 | 0.00 | 0.00 | 59 | |
| 20260505111113 | 38 | 186 | 1.0 | 4.0 | 0.00 | 0.00 | 0.00 | 57 | |
| 20260505101803 | 36 | 207 | 0.0 | 2.0 | 0.00 | 0.00 | 0.00 | 61 | |
| 20260505100903 | 36 | 207 | 0.0 | 2.0 | 0.00 | 0.00 | 0.00 | 60 | |
| 20260505100212 | 36 | 207 | 1.0 | 3.0 | 0.00 | 0.00 | 0.00 | 60 | |
| 20260505095403 | 37 | 207 | 2.0 | 3.0 | 0.00 | 0.00 | 0.00 | 58 | |
| 20260505094503 | 38 | 207 | 2.0 | 4.0 | 0.00 | 0.00 | 0.00 | 56 | |
| 20260505093603 | 39 | 208 | 1.0 | 3.0 | 0.00 | 0.00 | 0.00 | 53 | |
| 20260505092914 | 40 | 207 | 1.0 | 3.0 | 0.00 | 0.00 | 0.00 | 52 | |
| 20260505091803 | 40 | 207 | 2.0 | 4.0 | 0.00 | 0.00 | 0.00 | 51 | |
| 20260505090903 | 40 | 206 | 2.0 | 4.0 | 0.00 | 0.00 | 0.00 | 50 | |
| 20260505090003 | 41 | 206 | 2.0 | 4.0 | 0.00 | 0.00 | 0.00 | 49 | |
| 20260505085403 | 41 | 205 | 2.0 | 5.0 | 0.00 | 0.00 | 0.00 | 49 | |
| 20260505084503 | 41 | 190 | 1.0 | 4.0 | 0.00 | 0.00 | 0.00 | 48 | |
| 20260505083812 | 41 | 189 | 1.0 | 4.0 | 0.00 | 0.00 | 0.00 | 46 | |
| 20260505082703 | 42 | 188 | 2.0 | 4.0 | 0.00 | 0.00 | 0.00 | 45 | |
| 20260505082013 | 43 | 186 | 2.0 | 5.0 | 0.00 | 0.00 | 0.00 | 45 | |
| 20260505081114 | 43 | 176 | 2.0 | 4.0 | 0.00 | 0.00 | 0.00 | 44 | |
| 20260505080003 | 43 | 172 | 2.0 | 4.0 | 0.00 | 0.00 | 0.00 | 43 | |
| 20260505075403 | 43 | 172 | 2.0 | 5.0 | 0.00 | 0.00 | 0.00 | 43 | |
| 20260505074503 | 43 | 171 | 2.0 | 4.0 | 0.00 | 0.00 | 0.00 | 42 | |
| 20260505073603 | 42 | 172 | 1.0 | 4.0 | 0.00 | 0.00 | 0.00 | 42 | |
| 20260505072703 | 43 | 175 | 3.0 | 7.0 | 0.00 | 0.00 | 0.00 | 42 | |
| 20260505071803 | 43 | 186 | 4.0 | 7.0 | 0.00 | 0.00 | 0.00 | 42 | |
| 20260505070903 | 42 | 187 | 3.0 | 6.0 | 0.00 | 0.00 | 0.00 | 42 | |
| 20260505070003 | 42 | 186 | 2.0 | 5.0 | 0.00 | 0.00 | 0.00 | 43 | |
| 20260505065403 | 42 | 187 | 2.0 | 5.0 | 0.00 | 0.00 | 0.00 | 43 | |
| 20260505064503 | 42 | 174 | 2.0 | 6.0 | 0.00 | 0.00 | 0.00 | 42 | |
| 20260505063603 | 43 | 154 | 1.0 | 3.0 | 0.00 | 0.00 | 0.00 | 40 | |
| 20260505062703 | 44 | 154 | 0.0 | 3.0 | 0.00 | 0.00 | 0.00 | 38 | |
| 20260505061803 | 46 | 154 | 0.0 | 1.0 | 0.00 | 0.00 | 0.00 | 36 | |
| 20260505060903 | 48 | 153 | 1.0 | 3.0 | 0.00 | 0.00 | 0.00 | 34 | |
| 20260505060215 | 49 | 151 | 2.0 | 5.0 | 0.00 | 0.00 | 0.00 | 32 | |
| 20260505055403 | 49 | 145 | 3.0 | 7.0 | 0.00 | 0.00 | 0.00 | 31 | |
| 20260505054503 | 50 | 163 | 3.0 | 7.0 | 0.00 | 0.00 | 0.00 | 31 | |
| 20260505053603 | 51 | 149 | 4.0 | 7.0 | 0.00 | 0.00 | 0.00 | 30 | |
| 20260505052703 | 51 | 136 | 4.0 | 8.0 | 0.00 | 0.00 | 0.00 | 30 | |
| 20260505051803 | 50 | 139 | 4.0 | 9.0 | 0.00 | 0.00 | 0.00 | 31 | |
| 20260505050903 | 49 | 148 | 3.0 | 7.0 | 0.00 | 0.00 | 0.00 | 33 | |
| 20260505040903 | 53 | 166 | 3.0 | 9.0 | 0.00 | 0.00 | 0.00 | 32 | |
| 20260505040004 | 53 | 166 | 3.0 | 8.0 | 0.00 | 0.00 | 0.00 | 33 | |
| 20260505035403 | 53 | 164 | 4.0 | 12.0 | 0.00 | 0.00 | 0.00 | 33 | |
| 20260505034503 | 53 | 171 | 3.0 | 8.0 | 0.00 | 0.00 | 0.00 | 33 | |
| 20260505033603 | 53 | 176 | 4.0 | 10.0 | 0.00 | 0.00 | 0.00 | 34 | |
| 20260505032703 | 54 | 171 | 5.0 | 11.0 | 0.00 | 0.00 | 0.00 | 34 | |
| 20260505031803 | 54 | 185 | 4.0 | 10.0 | 0.00 | 0.00 | 0.00 | 34 | |
| 20260505030903 | 54 | 182 | 6.0 | 11.0 | 0.00 | 0.00 | 0.00 | 34 | |
| 20260505030003 | 54 | 184 | 7.0 | 13.0 | 0.00 | 0.00 | 0.00 | 34 | |
| 20260505025403 | 55 | 184 | 7.0 | 13.0 | 0.00 | 0.00 | 0.00 | 34 | |
| 20260505024503 | 55 | 186 | 8.0 | 15.0 | 0.00 | 0.00 | 0.00 | 34 | |
| 20260505023814 | 55 | 188 | 8.0 | 15.0 | 0.00 | 0.00 | 0.00 | 33 | |
| 20260505022703 | 56 | 194 | 6.0 | 13.0 | 0.00 | 0.00 | 0.00 | 34 | |
| 20260505021803 | 57 | 194 | 7.0 | 17.0 | 0.00 | 0.00 | 0.00 | 34 | |
| 20260505020903 | 58 | 195 | 8.0 | 17.0 | 0.00 | 0.00 | 0.00 | 34 | |
| 20260505020213 | 58 | 190 | 10.0 | 21.0 | 0.00 | 0.00 | 0.00 | 35 | |
| 20260505015403 | 59 | 187 | 10.0 | 21.0 | 0.00 | 0.00 | 0.00 | 35 | |
| 20260505014714 | 59 | 192 | 9.0 | 17.0 | 0.00 | 0.00 | 0.00 | 36 | |
| 20260505013603 | 59 | 197 | 9.0 | 18.0 | 0.00 | 0.00 | 0.00 | 37 | |
| 20260505012703 | 60 | 198 | 7.0 | 15.0 | 0.00 | 0.00 | 0.00 | 38 | |
| 20260505011803 | 60 | 192 | 10.0 | 19.0 | 0.00 | 0.00 | 0.00 | 38 | |
| 20260505010903 | 60 | 191 | 10.0 | 17.0 | 0.00 | 0.00 | 0.00 | 38 | |
| 20260505010003 | 61 | 190 | 10.0 | 20.0 | 0.00 | 0.00 | 0.00 | 37 | |
| 20260505005612 | 62 | 193 | 9.0 | 20.0 | 0.00 | 0.00 | 0.00 | 37 | |
| 20260505004503 | 62 | 189 | 11.0 | 19.0 | 0.00 | 0.00 | 0.00 | 37 | |
| 20260505003813 | 63 | 193 | 10.0 | 19.0 | 0.00 | 0.00 | 0.00 | 37 | |
| 20260505002912 | 63 | 190 | 11.0 | 19.0 | 0.00 | 0.00 | 0.00 | 37 | |
| 20260505001803 | 62 | 193 | 8.0 | 17.0 | 0.00 | 0.00 | 0.00 | 36 | |
| 20260505001113 | 62 | 190 | 9.0 | 22.0 | 0.00 | 0.00 | 0.00 | 36 | |
| 20260505000003 | 62 | 197 | 8.0 | 15.0 | 0.00 | 0.00 | 0.00 | 35 | |
| 20260504235403 | 63 | 195 | 9.0 | 18.0 | 0.00 | 0.00 | 0.00 | 35 | |
| 20260504234503 | 64 | 189 | 9.0 | 23.0 | 0.00 | 0.00 | 0.00 | 34 | |
| 20260504233813 | 64 | 178 | 9.0 | 18.0 | 0.00 | 0.00 | 0.00 | 33 | |
| 20260504232703 | 64 | 206 | 10.0 | 19.0 | 0.00 | 0.00 | 0.00 | 34 | |
| 20260504232013 | 64 | 203 | 9.0 | 18.0 | 0.00 | 0.00 | 0.00 | 33 | |
| 20260504231113 | 64 | 190 | 10.0 | 21.0 | 0.00 | 0.00 | 0.00 | 33 | |
| 20260504230003 | 64 | 197 | 12.0 | 21.0 | 0.00 | 0.00 | 0.00 | 33 | |
| 20260504225403 | 64 | 210 | 10.0 | 21.0 | 0.00 | 0.00 | 0.00 | 33 | |
| 20260504224503 | 65 | 202 | 11.0 | 21.0 | 0.00 | 0.00 | 0.00 | 34 | |
| 20260504223603 | 65 | 205 | 10.0 | 23.0 | 0.00 | 0.00 | 0.00 | 34 | |
| 20260504222703 | 66 | 203 | 11.0 | 20.0 | 0.00 | 0.00 | 0.00 | 33 | |
| 20260504222013 | 66 | 203 | 11.0 | 22.0 | 0.00 | 0.00 | 0.00 | 33 | |
| 20260504220903 | 67 | 204 | 11.0 | 20.0 | 0.00 | 0.00 | 0.00 | 31 | |
| 20260504220003 | 66 | 206 | 10.0 | 21.0 | 0.00 | 0.00 | 0.00 | 32 | |
| 20260504215403 | 66 | 208 | 10.0 | 20.0 | 0.00 | 0.00 | 0.00 | 33 | |
| 20260504214713 | 67 | 209 | 10.0 | 21.0 | 0.00 | 0.00 | 0.00 | 32 | |
| 20260504213603 | 67 | 203 | 10.0 | 21.0 | 0.00 | 0.00 | 0.00 | 32 | |
| 20260504212703 | 67 | 211 | 9.0 | 23.0 | 0.00 | 0.00 | 0.00 | 32 | |
| 20260504211803 | 66 | 208 | 10.0 | 23.0 | 0.00 | 0.00 | 0.00 | 32 | |
| 20260504210903 | 66 | 220 | 8.0 | 16.0 | 0.00 | 0.00 | 0.00 | 33 | |
| 20260504210004 | 67 | 183 | 11.0 | 20.0 | 0.00 | 0.00 | 0.00 | 33 | |
| 20260504205403 | 68 | 175 | 11.0 | 24.0 | 0.00 | 0.00 | 0.00 | 32 | |
| 20260504204714 | 68 | 180 | 12.0 | 24.0 | 0.00 | 0.00 | 0.00 | 33 | |
| 20260504203603 | 67 | 203 | 12.0 | 21.0 | 0.00 | 0.00 | 0.00 | 33 | |
| 20260504202703 | 66 | 207 | 11.0 | 19.0 | 0.00 | 0.00 | 0.00 | 35 | |
| 20260504201803 | 66 | 209 | 10.0 | 20.0 | 0.00 | 0.00 | 0.00 | 36 | |
| 20260504200903 | 66 | 204 | 10.0 | 21.0 | 0.00 | 0.00 | 0.00 | 36 | |
| 20260504200003 | 66 | 211 | 9.0 | 21.0 | 0.00 | 0.00 | 0.00 | 36 | |
| 20260504195403 | 66 | 216 | 10.0 | 21.0 | 0.00 | 0.00 | 0.00 | 36 | |
| 20260504194503 | 66 | 208 | 9.0 | 18.0 | 0.00 | 0.00 | 0.00 | 38 | |
| 20260504193813 | 67 | 198 | 8.0 | 18.0 | 0.00 | 0.00 | 0.00 | 36 | |
| 20260504192703 | 66 | 201 | 9.0 | 17.0 | 0.00 | 0.00 | 0.00 | 35 | |
| 20260504191803 | 66 | 212 | 9.0 | 22.0 | 0.00 | 0.00 | 0.00 | 38 | |
| 20260504191113 | 66 | 212 | 10.0 | 21.0 | 0.00 | 0.00 | 0.00 | 40 | |
| 20260504190003 | 65 | 193 | 10.0 | 19.0 | 0.00 | 0.00 | 0.00 | 39 | |
| 20260504185403 | 66 | 195 | 9.0 | 19.0 | 0.00 | 0.00 | 0.00 | 40 | |
| 20260504184503 | 65 | 188 | 10.0 | 19.0 | 0.00 | 0.00 | 0.00 | 41 | |
| 20260504183603 | 65 | 185 | 10.0 | 18.0 | 0.00 | 0.00 | 0.00 | 40 | |
| 20260504182703 | 64 | 177 | 10.0 | 17.0 | 0.00 | 0.00 | 0.00 | 39 |